SCP
1 0 1 0 0 0 0 0 0 0 0 0 0 0 0 0 0 0 0 1 0 0 0 0 0 0 0 0 0 0 0 0 0 0 0 0 0 0 0 0 0 0 0
3 1 1 1 0 0 0 0 0 0 0 0 0 0 0 0 0 0 0 2 1 0 1 1 0 0 0 0 0 0 0 0 0 0 0 0 0 0 0 0 0 0 0
4 3 2 2 1 1 1 1 1 1 0 0 1 0 0 0 0 0 0 0 1 1 1 1 1 0 0 0 0 0 0 0 0 0 0 0 0 0 0 0 0 0 0
3 4 2 2 2 2 1 1 1 1 1 1 1 0 0 0 0 0 0 0 2 1 1 1 1 1 0 0 0 0 0 0 0 0 0 0 0 0 0 0 0 0 0
1 3 2 3 4 3 2 1 1 1 1 2 1 1 0 0 0 0 0 1 1 2 1 1 1 1 1 1 0 0 0 0 0 0 0 0 0 0 0 0 0 0 0
1 3 1 3 2 1 3 2 2 1 1 1 1 1 1 1 0 0 0 1 1 2 1 2 1 1 1 1 1 0 0 0 0 0 0 0 0 0 0 0 0 0 0
2 5 2 3 3 1 2 4 3 2 1 1 1 1 2 2 2 1 1 1 2 2 2 3 2 1 1 0 0 0 0 0 0 0 0 0 0 0 0 0 0 0 0
3 3 6 4 5 2 3 4 5 2 2 1 2 1 1 1 1 1 1 1 5 3 1 2 2 2 1 1 0 0 0 0 0 0 0 0 0 0 0 0 0 0 0
1 4 3 3 5 4 2 4 4 3 2 2 2 2 1 1 1 2 3 1 3 3 2 2 2 1 1 1 0 0 0 0 0 0 0 0 0 0 0 0 0 0 0
1 1 3 4 4 3 3 4 3 4 3 2 2 2 2 1 3 5 5 3 3 2 2 1 2 1 0 0 0 0 0 0 0 0 0 0 0 0 0 0 0 0 0
1 0 1 3 3 3 3 4 5 5 4 2 2 2 2 2 1 3 4 1 1 1 1 1 1 0 0 0 0 0 0 0 0 0 0 0 0 0 0 0 0 0 0
0 1 1 1 2 3 3 4 4 5 4 3 2 2 2 2 2 1 1 2 1 1 1 0 0 0 0 0 0 0 0 0 0 0 0 0 0 0 0 0 0 0 0
0 1 2 2 1 2 3 3 3 4 5 4 4 2 2 1 1 1 2 2 1 0 1 0 0 0 0 0 0 0 0 0 0 0 0 0 0 0 0 0 0 0 0
0 1 1 2 1 2 2 2 3 4 4 4 3 3 2 2 1 1 3 3 0 0 0 0 0 0 0 0 0 0 0 0 0 0 0 0 0 0 0 0 0 0 0
0 0 0 1 1 1 2 2 3 4 4 4 3 3 2 3 3 2 4 5 1 0 0 0 0 0 0 0 0 0 0 0 0 0 0 0 0 0 0 0 0 0 0
0 0 0 0 0 1 1 1 2 3 4 4 3 3 3 2 2 2 2 1 0 0 0 0 0 0 0 0 0 0 0 0 0 0 0 0 0 0 0 0 0 0 0
0 0 0 0 0 0 1 1 1 2 2 4 4 3 3 4 2 1 0 0 0 0 0 0 0 0 0 0 0 0 0 0 0 0 0 0 0 0 0 0 0 0 0
0 0 0 0 0 0 1 1 1 1 2 2 3 5 2 1 1 0 0 0 0 0 0 0 0 0 0 0 0 0 0 0 0 0 0 0 0 0 0 0 0 0 0
0 0 0 0 0 0 0 1 1 1 1 2 3 2 0 0 0 0 0 0 0 0 0 0 0 0 0 0 0 0 0 0 0 0 0 0 0 0 0 0 0 0 0
0 0 0 0 0 0 0 1 1 1 1 1 1 0 0 0 0 0 0 0 0 0 0 0 0 0 0 0 0 0 0 0 0 0 0 0 0 0 0 0 0 0 0
0 0 0 0 0 0 0 1 0 0 0 0 0 0 0 0 0 0 0 0 0 0 0 0 0 0 0 0 0 0 0 0 0 0 0 0 0 0 0 0 0 0 0
0 -0 -0 -0 0 0 0 0 0 0 0 0 0 0 0 0 0 0 0 0 0 0 0 0 0 0 0 0 0 0 0 0 0 0 0 0 0 0 0 0 0 0 0
0 0 0 0 0 0 0 0 0 0 0 0 0 0 0 0 0 0 0 0 0 0 0 0 0 0 0 0 0 0 0 0 0 0 0 0 0 0 0 0 0 0 0
-0 -0 -0 -0 0 0 0 0 0 0 0 0 0 0 0 0 0 0 0 0 0 0 0 0 0 0 0 0 0 0 0 0 0 0 0 0 0 0 0 0 0 0 0
-0 -0 0 -0 -0 0 0 -0 0 0 0 0 0 0 0 0 0 0 0 0 -0 0 0 0 0 0 0 0 -0 0 0 0 0 0 0 0 0 0 0 0 0 0 0
-0 0 0 0 -0 0 0 0 0 0 0 0 0 0 0 0 0 0 -0 -0 0 0 0 0 0 0 0 -0 -0 0 0 -0 0 0 0 0 0 0 0 0 0 0 0
Wind_Speed_500mb
36 35 38 39 39 39 38 39 39 43 38 39 39 41 40 39 37 35 33 41 38 36 33 27 26 27 27 27 30 31 30 30 31 31 35 38 39 41 41 41 38 35 30
42 39 39 39 39 41 42 43 43 42 43 41 39 39 40 38 38 37 35 48 46 40 38 32 29 28 28 29 32 35 34 34 33 34 36 39 41 43 45 45 41 38 32
46 53 44 46 40 40 42 45 45 44 44 41 41 39 38 38 39 41 39 38 43 39 40 38 34 32 31 33 35 38 38 37 36 36 38 40 41 44 48 49 44 38 35
54 58 46 44 42 42 41 42 46 49 47 45 43 41 39 38 39 42 40 41 45 50 46 36 38 38 37 39 41 42 43 42 40 40 40 41 42 46 50 54 49 41 31
44 48 50 50 43 46 43 41 46 51 49 49 46 45 42 42 40 40 42 45 43 41 34 35 39 36 38 43 45 45 47 49 47 42 42 44 45 49 53 55 47 37 38
46 48 46 49 47 43 48 46 48 46 51 56 47 49 48 47 41 43 45 44 45 45 46 43 37 43 42 35 42 47 47 52 55 50 43 47 49 52 55 56 51 43 43
52 52 51 50 53 48 49 50 50 51 53 52 55 54 52 49 44 46 42 48 48 50 52 41 43 39 39 37 42 45 46 48 51 46 51 50 52 54 57 57 48 48 48
58 63 64 55 59 49 55 57 59 50 51 55 59 56 55 57 54 57 56 59 53 52 46 42 43 39 34 40 45 46 47 44 50 57 53 53 54 56 57 59 51 50 49
59 48 62 65 63 57 56 60 56 62 54 52 53 62 48 55 56 60 60 57 56 48 45 38 32 31 32 33 41 48 50 55 56 51 51 53 56 59 61 61 57 55 43
44 47 61 64 69 65 64 61 54 57 59 56 51 59 66 62 29 29 42 51 45 41 45 38 34 40 30 36 35 43 55 54 50 50 52 54 58 60 58 58 55 44 40
59 67 60 58 69 67 74 69 63 62 60 58 55 54 57 61 69 63 41 40 27 40 32 41 29 31 39 34 28 53 52 55 47 50 52 56 56 57 56 54 46 39 36
50 52 52 56 69 70 74 78 80 75 63 62 55 57 60 65 70 60 61 61 39 39 38 26 30 28 25 29 33 44 51 50 44 49 51 52 54 54 51 49 43 37 35
50 50 52 54 62 67 79 78 79 73 74 68 67 58 55 61 61 64 63 60 46 33 41 28 20 22 22 34 34 37 44 49 48 39 47 52 52 48 48 46 43 43 43
54 57 56 58 65 61 71 74 86 82 76 68 65 63 58 62 63 66 64 53 60 72 35 17 27 25 29 33 28 40 38 42 52 44 49 49 46 46 46 46 43 41 40
67 59 61 59 66 65 65 75 78 84 75 67 60 59 61 64 59 59 51 52 38 50 37 36 14 25 24 29 35 38 41 38 48 50 45 39 42 44 40 40 36 37 38
66 74 74 70 64 62 70 68 70 77 75 69 59 51 53 49 49 57 66 73 62 39 3 7 26 27 25 29 32 41 42 42 37 42 44 44 44 39 34 30 29 27 23
72 68 67 67 69 70 65 74 72 72 70 69 63 49 50 55 61 63 64 62 49 36 22 22 25 26 31 34 33 42 39 30 27 37 45 47 42 30 24 25 27 24 23
72 70 74 66 64 62 62 66 71 64 68 64 61 53 55 59 60 60 58 61 50 39 28 29 26 23 24 31 39 37 26 22 23 32 39 40 23 24 22 24 25 26 27
70 71 70 65 63 63 65 63 67 61 63 58 57 56 53 57 57 50 50 42 37 32 27 17 7 17 20 26 33 20 24 21 21 28 29 31 31 26 29 27 30 27 27
63 65 62 60 60 59 52 53 55 54 53 53 50 46 50 48 46 44 45 41 34 28 29 26 16 10 19 20 21 20 19 17 24 16 18 25 28 28 33 37 39 26 25
43 44 49 49 48 52 51 46 46 53 58 57 57 57 48 44 44 48 42 36 33 35 27 14 11 1 16 17 15 17 17 22 17 11 22 18 19 20 29 34 32 33 28
23 32 33 43 39 50 54 59 59 60 56 59 54 49 45 47 51 50 44 34 25 14 15 15 17 15 12 8 13 14 15 18 15 16 25 21 16 21 22 21 36 36 32
19 30 37 44 49 48 52 58 54 55 58 57 53 51 51 49 46 42 37 32 30 20 11 15 9 12 4 8 10 11 14 16 21 22 22 24 14 26 34 25 26 26 39
11 19 27 31 34 47 51 50 57 53 54 54 52 51 47 43 37 32 29 26 17 17 14 9 8 4 7 16 16 8 21 22 15 20 21 18 27 31 31 28 14 26 48
39 43 46 42 45 45 34 35 44 57 60 58 56 53 47 47 44 30 22 20 22 22 19 18 16 22 20 37 33 21 13 17 18 21 15 29 27 37 30 16 25 50 42
52 53 62 60 57 57 44 44 54 65 69 68 61 58 50 42 42 33 14 17 20 19 15 18 22 22 23 29 32 26 21 16 21 17 22 35 28 48 34 13 49 49 42
Wind_Direction_500mb
246 244 247 242 246 248 249 247 247 242 245 243 243 246 248 249 250 249 256 268 264 272 270 264 262 264 272 279 284 290 297 300 311 322 326 332 337 341 344 338 335 333 323
248 247 247 249 247 246 247 248 247 246 247 245 247 247 248 251 252 250 250 262 262 267 267 258 260 263 269 273 278 281 288 293 302 310 318 324 330 336 336 336 332 323 320
253 241 244 248 253 251 250 247 246 246 246 248 248 244 249 253 252 250 249 256 262 260 268 260 255 259 263 267 273 275 283 286 294 302 310 315 324 327 329 329 326 318 312
249 248 245 246 252 253 250 243 243 243 245 248 251 249 248 248 251 250 247 249 254 266 261 264 268 262 262 264 268 273 279 282 289 295 302 308 315 320 321 323 321 316 309
249 256 250 242 245 248 247 247 240 238 241 244 248 250 249 247 243 249 245 246 242 257 267 266 270 262 266 266 265 268 276 284 289 291 295 302 308 314 316 319 315 307 303
250 247 249 250 249 246 250 249 242 241 242 244 244 249 250 250 245 243 242 244 242 253 238 260 260 258 267 276 270 268 269 272 275 287 293 295 303 307 311 313 310 303 299
247 244 247 246 247 243 241 247 245 245 240 241 247 250 257 252 246 241 242 238 240 246 248 240 252 266 270 276 278 270 271 267 273 264 285 290 297 302 306 306 300 299 296
256 250 236 240 242 244 248 240 237 237 245 242 239 249 254 250 243 238 239 235 236 237 243 246 243 253 258 270 275 270 265 262 258 268 281 286 293 298 299 298 294 292 293
244 248 260 247 238 243 243 249 247 236 240 243 242 238 249 250 249 237 232 230 233 227 234 241 241 239 240 251 260 265 264 263 268 273 278 285 292 295 295 295 296 296 297
253 256 253 256 254 240 244 244 246 241 239 241 244 238 239 250 283 262 242 233 233 222 220 226 229 240 234 235 244 248 261 270 274 279 283 288 292 294 296 296 297 294 289
268 255 248 250 255 255 239 236 238 245 240 240 241 241 241 243 251 256 261 241 204 218 216 229 212 223 247 242 231 255 255 260 274 283 287 292 294 295 298 298 295 290 285
268 267 270 263 242 250 247 238 237 235 237 236 240 242 238 241 241 244 248 255 232 216 208 206 220 217 224 257 231 242 261 277 282 285 290 294 297 298 300 299 296 290 287
271 268 268 266 262 257 248 243 240 237 236 240 240 240 240 241 241 243 249 258 274 221 192 201 218 224 211 235 253 262 279 289 290 294 296 299 297 300 299 300 296 289 286
264 260 258 262 257 258 253 250 243 238 237 238 241 239 239 245 242 240 250 265 277 272 245 233 209 215 235 252 256 277 287 287 298 306 303 300 303 300 303 302 297 296 297
263 272 269 266 266 252 254 254 248 238 234 235 236 239 240 238 245 246 242 242 246 253 219 185 181 243 251 286 282 284 287 285 300 301 302 303 304 307 308 305 304 301 296
268 260 257 256 250 260 252 252 250 240 232 228 227 235 239 237 235 242 243 246 254 252 342 151 196 245 275 285 284 287 290 298 302 307 312 317 320 314 311 314 319 318 314
273 267 263 263 258 248 252 248 247 240 231 228 222 225 231 228 233 242 248 248 236 229 214 218 234 254 281 285 262 278 296 304 305 302 302 318 318 318 321 324 318 320 317
269 262 264 257 256 250 244 248 246 239 228 223 222 219 224 233 234 239 242 243 244 251 223 229 259 274 300 290 288 301 317 302 305 296 307 312 323 326 322 323 321 315 319
271 265 258 252 250 240 238 240 241 236 226 219 219 213 219 233 232 227 227 218 212 219 212 214 261 270 275 286 291 319 301 321 311 299 305 324 323 340 341 332 324 316 315
272 260 251 248 244 232 235 236 235 230 225 209 205 212 221 227 222 215 216 209 202 190 175 181 175 282 301 277 314 309 316 311 307 304 300 313 325 329 331 327 326 314 324
260 257 243 240 237 233 226 236 216 215 210 211 208 211 213 209 210 198 185 170 167 172 180 142 92 165 247 273 303 311 318 321 322 303 320 331 324 322 321 320 315 306 321
260 246 235 234 231 233 227 222 221 212 215 205 201 199 193 194 183 176 164 165 154 132 136 129 168 178 265 295 304 314 337 322 337 333 336 333 319 323 331 312 290 292 305
246 229 226 220 216 218 219 217 212 207 198 198 192 181 177 177 174 172 171 136 128 124 155 168 157 152 233 299 316 346 310 343 337 333 340 328 328 331 323 316 294 284 300
156 150 154 165 172 166 195 209 191 179 176 173 169 162 159 149 141 131 110 105 103 105 148 130 118 106 53 24 1 15 358 340 342 344 336 330 336 334 331 333 304 308 311
111 114 117 125 136 140 174 185 184 164 156 145 140 135 130 119 104 94 105 118 119 109 98 84 70 40 33 20 23 39 355 9 346 345 325 347 338 329 345 324 312 325 329
111 114 118 118 125 130 149 158 153 145 135 129 125 116 109 104 102 106 123 117 100 91 90 41 27 22 21 14 15 17 9 346 351 354 331 338 330 338 339 325 342 355 347
Wind_Speed_850mb
36 35 38 39 39 39 38 39 39 43 38 39 39 41 40 39 37 35 33 41 38 36 33 27 26 27 27 27 30 31 30 30 31 31 35 38 39 41 41 41 38 35 30
42 39 39 39 39 41 42 43 43 42 43 41 39 39 40 38 38 37 35 48 46 40 38 32 29 28 28 29 32 35 34 34 33 34 36 39 41 43 45 45 41 38 32
46 53 44 46 40 40 42 45 45 44 44 41 41 39 38 38 39 41 39 38 43 39 40 38 34 32 31 33 35 38 38 37 36 36 38 40 41 44 48 49 44 38 35
54 58 46 44 42 42 41 42 46 49 47 45 43 41 39 38 39 42 40 41 45 50 46 36 38 38 37 39 41 42 43 42 40 40 40 41 42 46 50 54 49 41 31
44 48 50 50 43 46 43 41 46 51 49 49 46 45 42 42 40 40 42 45 43 41 34 35 39 36 38 43 45 45 47 49 47 42 42 44 45 49 53 55 47 37 38
46 48 46 49 47 43 48 46 48 46 51 56 47 49 48 47 41 43 45 44 45 45 46 43 37 43 42 35 42 47 47 52 55 50 43 47 49 52 55 56 51 43 43
52 52 51 50 53 48 49 50 50 51 53 52 55 54 52 49 44 46 42 48 48 50 52 41 43 39 39 37 42 45 46 48 51 46 51 50 52 54 57 57 48 48 48
58 63 64 55 59 49 55 57 59 50 51 55 59 56 55 57 54 57 56 59 53 52 46 42 43 39 34 40 45 46 47 44 50 57 53 53 54 56 57 59 51 50 49
59 48 62 65 63 57 56 60 56 62 54 52 53 62 48 55 56 60 60 57 56 48 45 38 32 31 32 33 41 48 50 55 56 51 51 53 56 59 61 61 57 55 43
44 47 61 64 69 65 64 61 54 57 59 56 51 59 66 62 29 29 42 51 45 41 45 38 34 40 30 36 35 43 55 54 50 50 52 54 58 60 58 58 55 44 40
59 67 60 58 69 67 74 69 63 62 60 58 55 54 57 61 69 63 41 40 27 40 32 41 29 31 39 34 28 53 52 55 47 50 52 56 56 57 56 54 46 39 36
50 52 52 56 69 70 74 78 80 75 63 62 55 57 60 65 70 60 61 61 39 39 38 26 30 28 25 29 33 44 51 50 44 49 51 52 54 54 51 49 43 37 35
50 50 52 54 62 67 79 78 79 73 74 68 67 58 55 61 61 64 63 60 46 33 41 28 20 22 22 34 34 37 44 49 48 39 47 52 52 48 48 46 43 43 43
54 57 56 58 65 61 71 74 86 82 76 68 65 63 58 62 63 66 64 53 60 72 35 17 27 25 29 33 28 40 38 42 52 44 49 49 46 46 46 46 43 41 40
67 59 61 59 66 65 65 75 78 84 75 67 60 59 61 64 59 59 51 52 38 50 37 36 14 25 24 29 35 38 41 38 48 50 45 39 42 44 40 40 36 37 38
66 74 74 70 64 62 70 68 70 77 75 69 59 51 53 49 49 57 66 73 62 39 3 7 26 27 25 29 32 41 42 42 37 42 44 44 44 39 34 30 29 27 23
72 68 67 67 69 70 65 74 72 72 70 69 63 49 50 55 61 63 64 62 49 36 22 22 25 26 31 34 33 42 39 30 27 37 45 47 42 30 24 25 27 24 23
72 70 74 66 64 62 62 66 71 64 68 64 61 53 55 59 60 60 58 61 50 39 28 29 26 23 24 31 39 37 26 22 23 32 39 40 23 24 22 24 25 26 27
70 71 70 65 63 63 65 63 67 61 63 58 57 56 53 57 57 50 50 42 37 32 27 17 7 17 20 26 33 20 24 21 21 28 29 31 31 26 29 27 30 27 27
63 65 62 60 60 59 52 53 55 54 53 53 50 46 50 48 46 44 45 41 34 28 29 26 16 10 19 20 21 20 19 17 24 16 18 25 28 28 33 37 39 26 25
43 44 49 49 48 52 51 46 46 53 58 57 57 57 48 44 44 48 42 36 33 35 27 14 11 1 16 17 15 17 17 22 17 11 22 18 19 20 29 34 32 33 28
23 32 33 43 39 50 54 59 59 60 56 59 54 49 45 47 51 50 44 34 25 14 15 15 17 15 12 8 13 14 15 18 15 16 25 21 16 21 22 21 36 36 32
19 30 37 44 49 48 52 58 54 55 58 57 53 51 51 49 46 42 37 32 30 20 11 15 9 12 4 8 10 11 14 16 21 22 22 24 14 26 34 25 26 26 39
11 19 27 31 34 47 51 50 57 53 54 54 52 51 47 43 37 32 29 26 17 17 14 9 8 4 7 16 16 8 21 22 15 20 21 18 27 31 31 28 14 26 48
39 43 46 42 45 45 34 35 44 57 60 58 56 53 47 47 44 30 22 20 22 22 19 18 16 22 20 37 33 21 13 17 18 21 15 29 27 37 30 16 25 50 42
52 53 62 60 57 57 44 44 54 65 69 68 61 58 50 42 42 33 14 17 20 19 15 18 22 22 23 29 32 26 21 16 21 17 22 35 28 48 34 13 49 49 42
Wind_Direction_850mb
246 244 247 242 246 248 249 247 247 242 245 243 243 246 248 249 250 249 256 268 264 272 270 264 262 264 272 279 284 290 297 300 311 322 326 332 337 341 344 338 335 333 323
248 247 247 249 247 246 247 248 247 246 247 245 247 247 248 251 252 250 250 262 262 267 267 258 260 263 269 273 278 281 288 293 302 310 318 324 330 336 336 336 332 323 320
253 241 244 248 253 251 250 247 246 246 246 248 248 244 249 253 252 250 249 256 262 260 268 260 255 259 263 267 273 275 283 286 294 302 310 315 324 327 329 329 326 318 312
249 248 245 246 252 253 250 243 243 243 245 248 251 249 248 248 251 250 247 249 254 266 261 264 268 262 262 264 268 273 279 282 289 295 302 308 315 320 321 323 321 316 309
249 256 250 242 245 248 247 247 240 238 241 244 248 250 249 247 243 249 245 246 242 257 267 266 270 262 266 266 265 268 276 284 289 291 295 302 308 314 316 319 315 307 303
250 247 249 250 249 246 250 249 242 241 242 244 244 249 250 250 245 243 242 244 242 253 238 260 260 258 267 276 270 268 269 272 275 287 293 295 303 307 311 313 310 303 299
247 244 247 246 247 243 241 247 245 245 240 241 247 250 257 252 246 241 242 238 240 246 248 240 252 266 270 276 278 270 271 267 273 264 285 290 297 302 306 306 300 299 296
256 250 236 240 242 244 248 240 237 237 245 242 239 249 254 250 243 238 239 235 236 237 243 246 243 253 258 270 275 270 265 262 258 268 281 286 293 298 299 298 294 292 293
244 248 260 247 238 243 243 249 247 236 240 243 242 238 249 250 249 237 232 230 233 227 234 241 241 239 240 251 260 265 264 263 268 273 278 285 292 295 295 295 296 296 297
253 256 253 256 254 240 244 244 246 241 239 241 244 238 239 250 283 262 242 233 233 222 220 226 229 240 234 235 244 248 261 270 274 279 283 288 292 294 296 296 297 294 289
268 255 248 250 255 255 239 236 238 245 240 240 241 241 241 243 251 256 261 241 204 218 216 229 212 223 247 242 231 255 255 260 274 283 287 292 294 295 298 298 295 290 285
268 267 270 263 242 250 247 238 237 235 237 236 240 242 238 241 241 244 248 255 232 216 208 206 220 217 224 257 231 242 261 277 282 285 290 294 297 298 300 299 296 290 287
271 268 268 266 262 257 248 243 240 237 236 240 240 240 240 241 241 243 249 258 274 221 192 201 218 224 211 235 253 262 279 289 290 294 296 299 297 300 299 300 296 289 286
264 260 258 262 257 258 253 250 243 238 237 238 241 239 239 245 242 240 250 265 277 272 245 233 209 215 235 252 256 277 287 287 298 306 303 300 303 300 303 302 297 296 297
263 272 269 266 266 252 254 254 248 238 234 235 236 239 240 238 245 246 242 242 246 253 219 185 181 243 251 286 282 284 287 285 300 301 302 303 304 307 308 305 304 301 296
268 260 257 256 250 260 252 252 250 240 232 228 227 235 239 237 235 242 243 246 254 252 342 151 196 245 275 285 284 287 290 298 302 307 312 317 320 314 311 314 319 318 314
273 267 263 263 258 248 252 248 247 240 231 228 222 225 231 228 233 242 248 248 236 229 214 218 234 254 281 285 262 278 296 304 305 302 302 318 318 318 321 324 318 320 317
269 262 264 257 256 250 244 248 246 239 228 223 222 219 224 233 234 239 242 243 244 251 223 229 259 274 300 290 288 301 317 302 305 296 307 312 323 326 322 323 321 315 319
271 265 258 252 250 240 238 240 241 236 226 219 219 213 219 233 232 227 227 218 212 219 212 214 261 270 275 286 291 319 301 321 311 299 305 324 323 340 341 332 324 316 315
272 260 251 248 244 232 235 236 235 230 225 209 205 212 221 227 222 215 216 209 202 190 175 181 175 282 301 277 314 309 316 311 307 304 300 313 325 329 331 327 326 314 324
260 257 243 240 237 233 226 236 216 215 210 211 208 211 213 209 210 198 185 170 167 172 180 142 92 165 247 273 303 311 318 321 322 303 320 331 324 322 321 320 315 306 321
260 246 235 234 231 233 227 222 221 212 215 205 201 199 193 194 183 176 164 165 154 132 136 129 168 178 265 295 304 314 337 322 337 333 336 333 319 323 331 312 290 292 305
246 229 226 220 216 218 219 217 212 207 198 198 192 181 177 177 174 172 171 136 128 124 155 168 157 152 233 299 316 346 310 343 337 333 340 328 328 331 323 316 294 284 300
156 150 154 165 172 166 195 209 191 179 176 173 169 162 159 149 141 131 110 105 103 105 148 130 118 106 53 24 1 15 358 340 342 344 336 330 336 334 331 333 304 308 311
111 114 117 125 136 140 174 185 184 164 156 145 140 135 130 119 104 94 105 118 119 109 98 84 70 40 33 20 23 39 355 9 346 345 325 347 338 329 345 324 312 325 329
111 114 118 118 125 130 149 158 153 145 135 129 125 116 109 104 102 106 123 117 100 91 90 41 27 22 21 14 15 17 9 346 351 354 331 338 330 338 339 325 342 355 347